This demonstration page uses our WeatherBlox Daily Observations layout. Learn more.

Left ArrowRight Arrow

41.12389, -100.76542

Hourly Observations for January 10, 2018

Temp ( °F °C ) Dew Point ( °F °C ) Humidity (%) Winds ( mph kmh ) Pressure ( in mb ) Visibility ( mi km ) Precip ( " mm )
12:53 am 00:53 Clear 40 4.4 27 -2.8 60 60 SSE 5 7 29.60 1003 10 16 0.00 0.00
1:53 am 01:53 Clear 34 1.1 25 -3.9 70 70 Calm 29.59 1002 10 16 0.00 0.00
2:53 am 02:53 Clear 29 -1.7 23 -5 78 78 Calm 29.58 1002 10 16 0.00 0.00
3:53 am 03:53 Clear 27 -2.8 24 -4.4 89 89 Calm 29.55 1001 10 16 0.00 0.00
4:53 am 04:53 Clear 28 -2.2 24 -4.4 85 85 WNW 3 6 29.54 1000 10 16 0.00 0.00
5:53 am 05:53 Clear 27 -2.8 23 -5 85 85 Calm 29.54 1000 10 16 0.00 0.00
6:53 am 06:53 Clear 27 -2.8 23 -5 85 85 NW 7 11 29.55 1001 10 16 0.00 0.00
7:53 am 07:53 Clear 26 -3.3 22 -5.6 84 84 Calm 29.53 1000 10 16 0.00 0.00
8:53 am 08:53 Sunny 30 -1.1 25 -3.9 82 82 Calm 29.51 999 10 16 0.00 0.00
9:53 am 09:53 Sunny 33 0.6 28 -2.2 82 82 NW 3 6 29.51 999 10 16 0.00 0.00
10:53 am 10:53 Sunny 37 2.8 29 -1.7 73 73 SSW 5 7 29.47 998 10 16 0.00 0.00
11:53 am 11:53 Sunny 41 5 30 -1.1 65 65 Calm 29.44 997 10 16 0.00 0.00
12:53 pm 12:53 Sunny 43 6.1 30 -1.1 60 60 W 3 6 29.41 996 10 16 0.00 0.00
1:53 pm 13:53 Sunny 45 7.2 31 -0.6 58 58 NW 8 13 29.40 996 10 16 0.00 0.00
2:53 pm 14:53 Sunny 51 10.6 33 0.6 50 50 WNW 7 11 29.36 994 10 16 0.00 0.00
3:53 pm 15:53 Sunny 51 10.6 34 1.1 52 52 SSW 6 9 29.40 996 10 16 0.00 0.00
4:53 pm 16:53 Sunny 51 10.6 34 1.1 52 52 Calm 29.43 997 10 16 0.00 0.00
5:53 pm 17:53 Cloudy 53 11.7 37 2.8 55 55 N 9 15 29.46 998 10 16 0.00 0.00
6:53 pm 18:53 Cloudy 43 6.1 34 1.1 71 71 N 30 48 29.54 1000 10 16 0.00 0.00
7:42 pm 19:42 Cloudy 37 2.8 31 -0.6 79 79 N 29 46 29.62 1003 10 16 0.00 0.00
7:53 pm 19:53 Cloudy 37 2.8 30 -1.1 76 76 N 25 41 29.64 1004 10 16 0.00 0.00
8:25 pm 20:25 Cloudy 32 0 24 -4.4 73 73 NNW 26 43 29.74 1007 10 16 0.00 0.00
8:53 pm 20:53 Windy with Snow Likely 26 -3.3 18 -7.8 71 71 N 31 50 29.78 1008 10 16 0.00 0.03
9:18 pm 21:18 Windy with Snow Likely 23 -5 18 -7.8 81 81 NNW 28 44 29.85 1011 2 3 0.01 0.25
9:23 pm 21:23 Windy with Snow Likely 22 -5.6 17 -8.3 82 82 NNW 26 43 29.91 1013 1 1 0.01 0.25
9:30 pm 21:30 Cloudy with Snow 21 -6.1 16 -8.9 81 81 NNW 24 39 29.91 1013 1 1 0.03 0.76
9:38 pm 21:38 Cloudy with Snow 20 -6.7 16 -8.9 85 85 NNW 21 33 29.91 1013 1 1 0.04 1.02
9:53 pm 21:53 Mostly Cloudy with Freezing Fog 20 -6.7 16 -8.9 85 85 NNW 14 22 29.82 1010 0 0 0.07 1.78
10:00 pm 22:00 Mostly Cloudy with Freezing Fog 20 -6.7 16 -8.9 85 85 NNW 24 39 29.91 1013 0 0 0.01 0.25
10:38 pm 22:38 Mostly Cloudy with Haze 16 -8.9 11 -11.7 80 80 NNW 17 28 29.97 1015 1 1 0.08 2.03
10:53 pm 22:53 Mostly Cloudy with Haze 16 -8.9 11 -11.7 80 80 NNW 26 43 29.87 1011 1 2 0.09 2.29
10:59 pm 22:59 Cloudy with Haze 16 -8.9 10 -12.2 77 77 NNW 18 30 30.00 1016 2 3 0.00 0.00
11:07 pm 23:07 Cloudy with Haze 16 -8.9 10 -12.2 77 77 NNW 16 26 30.00 1016 3 4 0.00 0.00
11:21 pm 23:21 Cloudy with Haze 16 -8.9 11 -11.7 80 80 NNW 14 22 30.00 1016 2 2 0.00 0.00
11:50 pm 23:50 Cloudy with Haze 16 -9 9 -13 73 73 NNW 20 31 30.06 1018 3 5 0.00 0.00
11:53 pm 23:53 Cloudy with Haze 16 -8.9 9 -12.8 74 74 NNW 18 30 29.89 1012 4 6 0.00 0.00

Powered by AerisWeather